TAM8512 SBPA-SUMU

Flight info

Callsign TAM8512
Flight time 1h 2m
Altitude 33000
Route DEVOT UN857 MIMOL UM792 TELAK
Aircraft MD11/H-SDE1E2E3FGHIJ2J3J4J5M1RWXY/LB1D1

Departure

Time 2026-05-08 12:53
Airport Porto Alegre-Salgado Filho International Airport (SBPA)

Arrival

Time 2026-05-08 13:55
Airport Carrasco General Cesáreo L. Berisso International Airport (SUMU)
Time Latitude Longitude Altitude Speed Heading
2026-05-08 12:23 -29.99088 -51.17768 27 ft 0 kts 356°
2026-05-08 12:43 -29.99104 -51.17766 26 ft 3 kts 353°
2026-05-08 12:43 -29.99126 -51.17762 26 ft 3 kts 345°
2026-05-08 12:43 -29.99148 -51.17754 25 ft 3 kts 332°
2026-05-08 12:44 -29.99165 -51.17739 26 ft 3 kts 300°
2026-05-08 12:44 -29.99170 -51.17728 24 ft 1 kts 277°
2026-05-08 12:48 -29.99168 -51.17743 26 ft 5 kts 277°
2026-05-08 12:48 -29.99160 -51.17808 26 ft 11 kts 279°
2026-05-08 12:48 -29.99145 -51.17882 26 ft 5 kts 293°
2026-05-08 12:49 -29.99121 -51.17930 26 ft 9 kts 299°
2026-05-08 12:49 -29.99116 -51.17966 26 ft 3 kts 257°
2026-05-08 12:49 -29.99125 -51.17995 26 ft 1 kts 236°
2026-05-08 12:49 -29.99135 -51.18002 26 ft 4 kts 216°
2026-05-08 12:50 -29.99179 -51.18040 25 ft 10 kts 218°
2026-05-08 12:50 -29.99225 -51.18106 26 ft 11 kts 239°
2026-05-08 12:50 -29.99262 -51.18170 26 ft 8 kts 227°
2026-05-08 12:50 -29.99291 -51.18188 27 ft 4 kts 204°
2026-05-08 12:51 -29.99352 -51.18224 25 ft 15 kts 211°
2026-05-08 12:51 -29.99416 -51.18267 28 ft 1 kts 192°
2026-05-08 12:51 -29.99425 -51.18261 28 ft 4 kts 157°
2026-05-08 12:52 -29.99442 -51.18238 28 ft 4 kts 114°
2026-05-08 12:52 -29.99444 -51.17816 29 ft 108 kts 91°
2026-05-08 12:52 -29.99462 -51.16485 121 ft 210 kts 90°
2026-05-08 12:53 -29.99491 -51.14775 1408 ft 211 kts 88°
2026-05-08 12:53 -29.99534 -51.13085 3059 ft 210 kts 89°
2026-05-08 12:53 -29.99797 -51.11425 4429 ft 229 kts 109°
2026-05-08 12:53 -30.00759 -51.09752 4872 ft 275 kts 142°
2026-05-08 12:54 -30.02534 -51.08820 5512 ft 283 kts 179°
2026-05-08 12:54 -30.04508 -51.08795 6808 ft 286 kts 192°
2026-05-08 12:54 -30.06518 -51.09024 8068 ft 296 kts 195°
2026-05-08 12:54 -30.08608 -51.09290 9340 ft 308 kts 195°
2026-05-08 12:55 -30.10804 -51.09546 10431 ft 328 kts 195°
2026-05-08 12:55 -30.13251 -51.09824 10647 ft 378 kts 193°
2026-05-08 12:55 -30.15890 -51.10075 11843 ft 389 kts 194°
2026-05-08 12:55 -30.18533 -51.10635 13225 ft 383 kts 207°
2026-05-08 12:56 -30.20853 -51.12010 14246 ft 367 kts 228°
2026-05-08 12:56 -30.22596 -51.14094 15040 ft 358 kts 242°
2026-05-08 12:56 -30.24030 -51.16462 15924 ft 359 kts 246°
2026-05-08 12:56 -30.25372 -51.18877 16757 ft 364 kts 246°
2026-05-08 12:57 -30.26758 -51.21366 17600 ft 370 kts 246°
2026-05-08 12:57 -30.28184 -51.23868 18371 ft 376 kts 245°
2026-05-08 12:57 -30.29658 -51.26395 19066 ft 381 kts 244°
2026-05-08 12:57 -30.31165 -51.28936 19744 ft 385 kts 244°
2026-05-08 12:58 -30.32702 -51.31506 20412 ft 389 kts 244°
2026-05-08 12:58 -30.34258 -51.34093 21082 ft 393 kts 244°
2026-05-08 12:58 -30.35829 -51.36700 21759 ft 397 kts 244°
2026-05-08 12:58 -30.37415 -51.39333 22432 ft 401 kts 244°
2026-05-08 12:59 -30.39019 -51.41997 23073 ft 406 kts 244°
2026-05-08 12:59 -30.40640 -51.44692 23668 ft 410 kts 244°
2026-05-08 12:59 -30.42256 -51.47380 24298 ft 414 kts 244°
2026-05-08 12:59 -30.43908 -51.50128 24942 ft 417 kts 244°
2026-05-08 13:00 -30.45573 -51.52901 25573 ft 421 kts 244°
2026-05-08 13:00 -30.47254 -51.55700 26252 ft 425 kts 244°
2026-05-08 13:00 -30.48951 -51.58530 26973 ft 428 kts 245°
2026-05-08 13:00 -30.50652 -51.61369 27676 ft 431 kts 245°
2026-05-08 13:01 -30.52368 -51.64232 28440 ft 431 kts 245°
2026-05-08 13:01 -30.54081 -51.67082 29330 ft 429 kts 245°
2026-05-08 13:01 -30.55782 -51.69908 30190 ft 427 kts 245°
2026-05-08 13:01 -30.57480 -51.72729 30852 ft 426 kts 245°
2026-05-08 13:02 -30.59171 -51.75545 31469 ft 425 kts 245°
2026-05-08 13:02 -30.60866 -51.78375 31891 ft 427 kts 246°
2026-05-08 13:02 -30.62560 -51.81200 32299 ft 426 kts 246°
2026-05-08 13:02 -30.64252 -51.84024 32735 ft 425 kts 246°
2026-05-08 13:03 -30.65923 -51.86812 32958 ft 426 kts 246°
2026-05-08 13:03 -30.67669 -51.89644 33011 ft 437 kts 245°
2026-05-08 13:03 -30.71395 -51.95395 33016 ft 449 kts 243°
2026-05-08 13:04 -30.75213 -52.01157 33013 ft 450 kts 243°
2026-05-08 13:04 -30.79028 -52.06936 33026 ft 450 kts 243°
2026-05-08 13:05 -30.82799 -52.12681 32999 ft 449 kts 243°
2026-05-08 13:05 -30.86592 -52.18477 33020 ft 449 kts 243°
2026-05-08 13:06 -30.90376 -52.24270 33003 ft 449 kts 243°
2026-05-08 13:06 -30.94148 -52.30051 33025 ft 449 kts 244°
2026-05-08 13:07 -30.97924 -52.35847 33007 ft 448 kts 244°
2026-05-08 13:07 -31.01694 -52.41643 33007 ft 448 kts 244°
2026-05-08 13:08 -31.05456 -52.47435 33007 ft 448 kts 244°
2026-05-08 13:08 -31.09193 -52.53196 33046 ft 448 kts 244°
2026-05-08 13:09 -31.12961 -52.59018 33000 ft 450 kts 244°
2026-05-08 13:09 -31.16733 -52.64853 32995 ft 450 kts 244°
2026-05-08 13:10 -31.20508 -52.70700 32996 ft 452 kts 243°
2026-05-08 13:10 -31.24580 -52.76314 32993 ft 457 kts 240°
2026-05-08 13:11 -31.28836 -52.81850 32991 ft 458 kts 240°
2026-05-08 13:11 -31.33091 -52.87385 32995 ft 457 kts 240°
2026-05-08 13:12 -31.37334 -52.92930 32988 ft 457 kts 240°
2026-05-08 13:12 -31.41547 -52.98450 32993 ft 457 kts 240°
2026-05-08 13:13 -31.45770 -53.03990 32860 ft 453 kts 240°
2026-05-08 13:13 -31.49962 -53.09499 32836 ft 453 kts 240°
2026-05-08 13:14 -31.54158 -53.15025 32840 ft 453 kts 240°
2026-05-08 13:14 -31.58351 -53.20556 32834 ft 453 kts 240°
2026-05-08 13:15 -31.62549 -53.26098 32865 ft 454 kts 239°
2026-05-08 13:15 -31.66733 -53.31627 32826 ft 452 kts 239°
2026-05-08 13:16 -31.70891 -53.37131 32823 ft 452 kts 239°
2026-05-08 13:16 -31.75060 -53.42660 32823 ft 452 kts 239°
2026-05-08 13:17 -31.79227 -53.48193 32817 ft 451 kts 239°
2026-05-08 13:17 -31.83358 -53.53688 32818 ft 451 kts 239°
2026-05-08 13:18 -31.87509 -53.59225 32820 ft 451 kts 240°
2026-05-08 13:18 -31.91648 -53.64778 32835 ft 451 kts 240°
2026-05-08 13:19 -31.95797 -53.70336 32810 ft 452 kts 240°
2026-05-08 13:19 -31.99951 -53.75895 32836 ft 451 kts 239°
2026-05-08 13:20 -32.04087 -53.81434 32810 ft 450 kts 239°
2026-05-08 13:20 -32.08218 -53.86997 32802 ft 450 kts 239°
2026-05-08 13:21 -32.12330 -53.92568 32799 ft 450 kts 239°
2026-05-08 13:21 -32.16402 -53.98088 32785 ft 450 kts 239°
2026-05-08 13:22 -32.20503 -54.03649 32777 ft 447 kts 239°
2026-05-08 13:22 -32.24589 -54.09196 32756 ft 447 kts 239°
2026-05-08 13:23 -32.28669 -54.14746 32748 ft 446 kts 239°
2026-05-08 13:23 -32.32783 -54.20263 32764 ft 452 kts 234°
2026-05-08 13:24 -32.35201 -54.22663 32803 ft 465 kts 225°
2026-05-08 13:24 -32.37925 -54.24769 32824 ft 471 kts 220°
2026-05-08 13:24 -32.43626 -54.28619 32788 ft 471 kts 218°
2026-05-08 13:25 -32.49316 -54.32461 32786 ft 470 kts 219°
2026-05-08 13:25 -32.54937 -54.36385 32781 ft 469 kts 220°
2026-05-08 13:26 -32.60546 -54.40355 32784 ft 469 kts 220°
2026-05-08 13:26 -32.66120 -54.44311 32774 ft 470 kts 220°
2026-05-08 13:27 -32.71727 -54.48292 32770 ft 470 kts 220°
2026-05-08 13:27 -32.77330 -54.52274 32773 ft 468 kts 219°
2026-05-08 13:28 -32.81971 -54.55574 32765 ft 467 kts 219°
2026-05-08 13:28 -32.87550 -54.59550 32758 ft 467 kts 220°
2026-05-08 13:29 -32.93124 -54.63530 32767 ft 468 kts 219°
2026-05-08 13:29 -32.98706 -54.67520 32751 ft 468 kts 219°
2026-05-08 13:30 -33.04289 -54.71515 32750 ft 467 kts 220°
2026-05-08 13:30 -33.09856 -54.75522 32776 ft 467 kts 219°
2026-05-08 13:31 -33.15421 -54.79528 32760 ft 466 kts 219°
2026-05-08 13:31 -33.20942 -54.83502 32743 ft 467 kts 219°
2026-05-08 13:32 -33.26514 -54.87516 32735 ft 467 kts 219°
2026-05-08 13:32 -33.32085 -54.91533 32736 ft 467 kts 219°
2026-05-08 13:33 -33.37650 -54.95551 32736 ft 467 kts 219°
2026-05-08 13:33 -33.40415 -54.97545 32719 ft 453 kts 219°
2026-05-08 13:33 -33.43067 -54.99444 32411 ft 437 kts 220°
2026-05-08 13:34 -33.45647 -55.01303 31935 ft 430 kts 220°
2026-05-08 13:34 -33.48197 -55.03157 31295 ft 428 kts 220°
2026-05-08 13:34 -33.50737 -55.05010 30687 ft 428 kts 220°
2026-05-08 13:34 -33.53282 -55.06871 30057 ft 428 kts 219°
2026-05-08 13:35 -33.55800 -55.08710 29360 ft 429 kts 219°
2026-05-08 13:35 -33.58354 -55.10572 28695 ft 430 kts 219°
2026-05-08 13:35 -33.60913 -55.12435 28053 ft 431 kts 219°
2026-05-08 13:35 -33.63490 -55.14310 27420 ft 431 kts 219°
2026-05-08 13:36 -33.66056 -55.16177 26787 ft 432 kts 219°
2026-05-08 13:36 -33.68628 -55.18049 26161 ft 433 kts 219°
2026-05-08 13:36 -33.71187 -55.19914 25530 ft 433 kts 218°
2026-05-08 13:36 -33.73768 -55.21795 24914 ft 434 kts 218°
2026-05-08 13:37 -33.76354 -55.23682 24290 ft 435 kts 218°
2026-05-08 13:37 -33.78948 -55.25576 23658 ft 436 kts 218°
2026-05-08 13:37 -33.81538 -55.27468 22987 ft 435 kts 217°
2026-05-08 13:37 -33.84106 -55.29342 22261 ft 428 kts 217°
2026-05-08 13:38 -33.86644 -55.31195 21583 ft 424 kts 217°
2026-05-08 13:38 -33.89117 -55.33003 20959 ft 419 kts 217°
2026-05-08 13:38 -33.91597 -55.34818 20330 ft 415 kts 217°
2026-05-08 13:38 -33.94053 -55.36618 19723 ft 411 kts 217°
2026-05-08 13:39 -33.96482 -55.38400 19122 ft 407 kts 217°
2026-05-08 13:39 -33.98889 -55.40168 18513 ft 403 kts 217°
2026-05-08 13:39 -34.01268 -55.41916 17908 ft 399 kts 217°
2026-05-08 13:39 -34.03628 -55.43652 17264 ft 395 kts 217°
2026-05-08 13:40 -34.05970 -55.45377 16645 ft 392 kts 216°
2026-05-08 13:40 -34.08288 -55.47085 16054 ft 388 kts 216°
2026-05-08 13:40 -34.10579 -55.48774 15461 ft 384 kts 216°
2026-05-08 13:40 -34.12845 -55.50445 14921 ft 380 kts 215°
2026-05-08 13:41 -34.15095 -55.52105 14383 ft 376 kts 215°
2026-05-08 13:41 -34.17309 -55.53740 13850 ft 370 kts 215°
2026-05-08 13:41 -34.19496 -55.55357 13301 ft 368 kts 213°
2026-05-08 13:41 -34.21661 -55.56960 12725 ft 361 kts 215°
2026-05-08 13:42 -34.23788 -55.58541 12195 ft 357 kts 214°
2026-05-08 13:42 -34.25890 -55.60103 11679 ft 351 kts 214°
2026-05-08 13:42 -34.27963 -55.61642 11218 ft 348 kts 214°
2026-05-08 13:42 -34.30020 -55.63169 10935 ft 346 kts 214°
2026-05-08 13:43 -34.32040 -55.64666 10807 ft 329 kts 214°
2026-05-08 13:43 -34.34018 -55.65810 10698 ft 310 kts 203°
2026-05-08 13:43 -34.36031 -55.66529 10589 ft 293 kts 198°
2026-05-08 13:43 -34.37957 -55.67090 10476 ft 278 kts 197°
2026-05-08 13:44 -34.39822 -55.67612 10363 ft 272 kts 198°
2026-05-08 13:44 -34.41666 -55.68130 10141 ft 272 kts 198°
2026-05-08 13:44 -34.43503 -55.68649 9735 ft 269 kts 198°
2026-05-08 13:44 -34.45316 -55.69162 9246 ft 265 kts 198°
2026-05-08 13:45 -34.47106 -55.69672 8768 ft 263 kts 198°
2026-05-08 13:45 -34.48881 -55.70178 8315 ft 261 kts 198°
2026-05-08 13:45 -34.50642 -55.70682 7865 ft 259 kts 198°
2026-05-08 13:45 -34.52392 -55.71183 7447 ft 257 kts 198°
2026-05-08 13:46 -34.54132 -55.71682 7061 ft 257 kts 198°
2026-05-08 13:46 -34.55847 -55.72174 6679 ft 256 kts 198°
2026-05-08 13:46 -34.57578 -55.72672 6283 ft 255 kts 198°
2026-05-08 13:46 -34.59292 -55.73163 6086 ft 254 kts 198°
2026-05-08 13:47 -34.61014 -55.73658 5795 ft 254 kts 198°
2026-05-08 13:47 -34.62726 -55.74149 5467 ft 251 kts 198°
2026-05-08 13:47 -34.64420 -55.74636 5120 ft 249 kts 199°
2026-05-08 13:47 -34.66061 -55.75223 4778 ft 240 kts 209°
2026-05-08 13:48 -34.67392 -55.76380 4534 ft 233 kts 230°
2026-05-08 13:48 -34.68394 -55.77789 4419 ft 206 kts 234°
2026-05-08 13:48 -34.69224 -55.79073 4318 ft 182 kts 236°
2026-05-08 13:48 -34.69941 -55.80242 4228 ft 164 kts 236°
2026-05-08 13:49 -34.70605 -55.81332 4069 ft 159 kts 237°
2026-05-08 13:49 -34.71245 -55.82383 3880 ft 155 kts 237°
2026-05-08 13:49 -34.71884 -55.83432 3679 ft 154 kts 237°
2026-05-08 13:49 -34.72520 -55.84477 3493 ft 154 kts 238°
2026-05-08 13:50 -34.73160 -55.85527 3286 ft 154 kts 239°
2026-05-08 13:50 -34.73798 -55.86584 3090 ft 155 kts 239°
2026-05-08 13:50 -34.74433 -55.87627 2882 ft 150 kts 238°
2026-05-08 13:50 -34.75059 -55.88653 2686 ft 151 kts 239°
2026-05-08 13:51 -34.75682 -55.89675 2488 ft 147 kts 239°
2026-05-08 13:51 -34.76259 -55.90613 2230 ft 128 kts 239°
2026-05-08 13:51 -34.76766 -55.91447 2070 ft 120 kts 240°
2026-05-08 13:51 -34.77255 -55.92252 1931 ft 119 kts 239°
2026-05-08 13:52 -34.77748 -55.93067 1782 ft 119 kts 239°
2026-05-08 13:52 -34.78242 -55.93878 1620 ft 120 kts 240°
2026-05-08 13:52 -34.78739 -55.94699 1434 ft 121 kts 240°
2026-05-08 13:52 -34.79239 -55.95520 1294 ft 120 kts 241°
2026-05-08 13:53 -34.79736 -55.96339 1087 ft 121 kts 239°
2026-05-08 13:53 -34.80244 -55.97178 938 ft 126 kts 238°
2026-05-08 13:53 -34.80769 -55.98040 793 ft 127 kts 238°
2026-05-08 13:53 -34.81295 -55.98903 639 ft 128 kts 239°
2026-05-08 13:54 -34.81828 -55.99782 465 ft 128 kts 239°
2026-05-08 13:54 -34.82355 -56.00644 300 ft 127 kts 239°
2026-05-08 13:54 -34.82901 -56.01514 123 ft 126 kts 240°
2026-05-08 13:54 -34.83339 -56.02266 100 ft 91 kts 238°
2026-05-08 13:55 -34.83619 -56.02727 91 ft 37 kts 233°
2026-05-08 13:55 -34.83766 -56.02960 81 ft 17 kts 232°
2026-05-08 13:55 -34.83851 -56.03076 82 ft 2 kts 201°
2026-05-08 13:56 -34.83868 -56.03078 84 ft 5 kts 188°
2026-05-08 13:56 -34.83911 -56.03083 72 ft 6 kts 182°
2026-05-08 13:56 -34.83951 -56.03083 68 ft 6 kts 180°
2026-05-08 13:56 -34.83980 -56.03083 70 ft 0 kts 175°
2026-05-08 13:57 -34.83990 -56.03081 68 ft 2 kts 170°
2026-05-08 13:57 -34.84009 -56.03069 65 ft 5 kts 145°
2026-05-08 13:57 -34.84050 -56.03007 67 ft 13 kts 119°
2026-05-08 13:57 -34.84083 -56.02906 63 ft 11 kts 109°
2026-05-08 13:58 -34.84103 -56.02830 69 ft 6 kts 104°
2026-05-08 13:58 -34.84105 -56.02822 72 ft 0 kts 104°
2026-05-08 13:58 -34.83591 -56.01714 101 ft 0 kts 143°